| time (UTC) | temp C | wind direction | speed KPH | gust KPH | rain 1hr cm | rain 24hr cm | rain mn cm | humidity % | barometer mb |
| 20260902161508 | 17 | 212 | 4.8 | 24.1 | 0.00 | 0.00 | 0.00 | 68 | 1005.1 |
| 20260902160008 | 17 | 146 | 6.4 | 24.1 | 0.00 | 0.00 | 0.00 | 70 | 1005.1 |
| 20260902154504 | 17 | 202 | 3.2 | 14.5 | 0.00 | 0.00 | 0.00 | 71 | 1005.3 |
| 20260902153007 | 17 | 150 | 1.6 | 16.1 | 0.00 | 0.00 | 0.00 | 72 | 1005.1 |
| 20260902151504 | 17 | 127 | 3.2 | 9.7 | 0.00 | 0.00 | 0.00 | 71 | 1005.0 |
| 20260902150002 | 17 | 180 | 3.2 | 14.5 | 0.00 | 0.00 | 0.00 | 70 | 1005.1 |
| 20260902144600 | 17 | 170 | 6.4 | 19.3 | 0.00 | 0.00 | 0.00 | 72 | 1005.4 |
| 20260902143055 | 17 | 210 | 4.8 | 22.5 | 0.00 | 0.00 | 0.00 | 72 | 1005.4 |
| 20260902141555 | 16 | 198 | 3.2 | 27.4 | 0.00 | 0.00 | 0.00 | 73 | 1005.5 |
| 20260902140049 | 16 | 120 | 3.2 | 16.1 | 0.00 | 0.00 | 0.00 | 73 | 1005.6 |
| 20260902134549 | 16 | 184 | 3.2 | 19.3 | 0.00 | 0.00 | 0.00 | 73 | 1005.8 |
| 20260902133055 | 16 | 186 | 4.8 | 14.5 | 0.00 | 0.00 | 0.00 | 74 | 1005.8 |
| 20260902131548 | 16 | 183 | 4.8 | 19.3 | 0.00 | 0.00 | 0.00 | 74 | 1005.8 |
| 20260902130042 | 16 | 167 | 6.4 | 19.3 | 0.00 | 0.00 | 0.00 | 74 | 1005.7 |
| 20260902124541 | 16 | 173 | 4.8 | 16.1 | 0.00 | 0.00 | 0.00 | 74 | 1005.6 |
| 20260902123046 | 16 | 205 | 4.8 | 16.1 | 0.00 | 0.00 | 0.00 | 73 | 1005.7 |
| 20260902121538 | 16 | 167 | 4.8 | 22.5 | 0.00 | 0.00 | 0.00 | 72 | 1005.8 |
| 20260902120042 | 16 | 153 | 1.6 | 16.1 | 0.00 | 0.00 | 0.00 | 73 | 1006.0 |
| 20260902114548 | 16 | 180 | 4.8 | 19.3 | 0.00 | 0.00 | 0.00 | 72 | 1006.1 |
| 20260902113038 | 16 | 178 | 3.2 | 9.7 | 0.00 | 0.00 | 0.00 | 73 | 1006.3 |
| 20260902111541 | 16 | 223 | 0.0 | 8.0 | 0.00 | 0.00 | 0.00 | 72 | 1006.3 |
| 20260902110053 | 16 | 221 | 1.6 | 11.3 | 0.00 | 0.00 | 0.00 | 72 | 1006.4 |
| 20260902104530 | 17 | 195 | 0.0 | 12.9 | 0.00 | 0.00 | 0.00 | 71 | 1006.5 |
| 20260902103029 | 17 | 217 | 1.6 | 12.9 | 0.00 | 0.00 | 0.00 | 70 | 1006.6 |
| 20260902101527 | 17 | 171 | 3.2 | 9.7 | 0.00 | 0.00 | 0.00 | 71 | 1006.7 |
| 20260902100026 | 17 | 167 | 3.2 | 16.1 | 0.00 | 0.00 | 0.00 | 72 | 1006.8 |
| 20260902094526 | 17 | 258 | 3.2 | 12.9 | 0.00 | 0.00 | 0.00 | 71 | 1007.0 |
| 20260902093021 | 17 | 191 | 3.2 | 16.1 | 0.00 | 0.00 | 0.00 | 72 | 1007.1 |
| 20260902091520 | 16 | 188 | 1.6 | 16.1 | 0.00 | 0.00 | 0.00 | 74 | 1007.2 |
| 20260902090017 | 16 | 230 | 1.6 | 16.1 | 0.00 | 0.00 | 0.00 | 75 | 1007.5 |
| 20260902084514 | 17 | 167 | 4.8 | 17.7 | 0.00 | 0.00 | 0.00 | 75 | 1007.5 |
| 20260902083016 | 16 | 304 | 3.2 | 17.7 | 0.00 | 0.00 | 0.00 | 76 | 1007.6 |
| 20260902081512 | 17 | 272 | 6.4 | 17.7 | 0.00 | 0.00 | 0.00 | 76 | 1007.8 |
| 20260902080011 | 17 | 173 | 6.4 | 22.5 | 0.00 | 0.00 | 0.00 | 76 | 1007.7 |
| 20260902074511 | 17 | 136 | 9.7 | 17.7 | 0.00 | 0.00 | 0.00 | 77 | 1007.7 |
| 20260902073008 | 16 | 164 | 4.8 | 14.5 | 0.00 | 0.00 | 0.00 | 79 | 1007.8 |
| 20260902071505 | 17 | 138 | 6.4 | 16.1 | 0.00 | 0.00 | 0.00 | 79 | 1007.8 |
| 20260902070003 | 17 | 201 | 4.8 | 11.3 | 0.00 | 0.00 | 0.00 | 77 | 1007.9 |
| 20260902064502 | 17 | 182 | 8.0 | 22.5 | 0.00 | 0.00 | 0.00 | 76 | 1008.0 |
| 20260902063003 | 17 | 198 | 3.2 | 16.1 | 0.00 | 0.00 | 0.00 | 76 | 1008.0 |
| 20260902061613 | 17 | 189 | 4.8 | 16.1 | 0.00 | 0.00 | 0.00 | 76 | 1008.0 |
| 20260902060059 | 17 | 163 | 6.4 | 12.9 | 0.00 | 0.00 | 0.00 | 77 | 1008.2 |
| 20260902054558 | 17 | 175 | 4.8 | 14.5 | 0.00 | 0.00 | 0.00 | 77 | 1008.3 |
| 20260902053058 | 17 | 151 | 1.6 | 14.5 | 0.00 | 0.00 | 0.00 | 77 | 1008.3 |
| 20260902051600 | 17 | 187 | 3.2 | 11.3 | 0.00 | 0.00 | 0.00 | 79 | 1008.4 |
| 20260902050057 | 16 | 194 | 3.2 | 12.9 | 0.00 | 0.00 | 0.00 | 82 | 1008.5 |
| 20260902044557 | 16 | 171 | 1.6 | 4.8 | 0.00 | 0.00 | 0.00 | 84 | 1008.5 |
| 20260902043103 | 16 | 162 | 0.0 | 1.6 | 0.00 | 0.00 | 0.00 | 82 | 1008.5 |
| 20260902041555 | 17 | 162 | 0.0 | 4.8 | 0.00 | 0.00 | 0.00 | 80 | 1008.7 |
| 20260902040100 | 17 | 193 | 0.0 | 8.0 | 0.00 | 0.00 | 0.00 | 79 | 1008.6 |
| 20260902034554 | 17 | 177 | 0.0 | 6.4 | 0.00 | 0.00 | 0.00 | 78 | 1008.6 |
| 20260902033105 | 17 | 150 | 0.0 | 8.0 | 0.00 | 0.00 | 0.00 | 77 | 1008.4 |
| 20260902031553 | 17 | 170 | 3.2 | 9.7 | 0.00 | 0.00 | 0.00 | 76 | 1008.4 |
| 20260902030053 | 17 | 163 | 1.6 | 8.0 | 0.00 | 0.00 | 0.00 | 75 | 1008.4 |
| 20260902024553 | 17 | 165 | 1.6 | 8.0 | 0.00 | 0.00 | 0.00 | 75 | 1008.4 |
| 20260902023152 | 17 | 153 | 0.0 | 6.4 | 0.00 | 0.00 | 0.00 | 75 | 1008.3 |
| 20260902021557 | 17 | 147 | 3.2 | 12.9 | 0.00 | 0.00 | 0.00 | 75 | 1008.4 |
| 20260902020051 | 17 | 153 | 0.0 | 8.0 | 0.00 | 0.00 | 0.00 | 74 | 1008.4 |
| 20260902014550 | 17 | 175 | 1.6 | 11.3 | 0.00 | 0.00 | 0.00 | 73 | 1008.4 |
| 20260902013050 | 17 | 163 | 3.2 | 12.9 | 0.00 | 0.00 | 0.00 | 75 | 1008.3 |
| 20260902011549 | 17 | 177 | 1.6 | 11.3 | 0.00 | 0.00 | 0.00 | 77 | 1008.4 |
| 20260902010051 | 17 | 178 | 3.2 | 9.7 | 0.00 | 0.00 | 0.00 | 76 | 1008.4 |
| 20260902004548 | 17 | 165 | 1.6 | 8.0 | 0.00 | 0.00 | 0.00 | 76 | 1008.4 |
| 20260902003047 | 17 | 171 | 0.0 | 3.2 | 0.00 | 0.00 | 0.00 | 77 | 1008.3 |
| 20260902001547 | 17 | 180 | 1.6 | 9.7 | 0.00 | 0.00 | 0.00 | 75 | 1008.2 |
| 20260902000052 | 17 | 192 | 3.2 | 8.0 | 0.00 | 0.00 | 0.00 | 77 | 1008.2 |
| 20260901234553 | 18 | 175 | 4.8 | 14.5 | 0.00 | 0.00 | 0.00 | 75 | 1008.3 |
| 20260901233045 | 18 | 162 | 3.2 | 11.3 | 0.00 | 0.00 | 0.00 | 76 | 1008.2 |
| 20260901231544 | 18 | 182 | 4.8 | 11.3 | 0.00 | 0.00 | 0.00 | 76 | 1008.2 |
| 20260901230046 | 18 | 182 | 4.8 | 16.1 | 0.00 | 0.00 | 0.00 | 74 | 1008.1 |
| 20260901224542 | 19 | 186 | 9.7 | 19.3 | 0.00 | 0.00 | 0.00 | 72 | 1008.2 |
| 20260901223039 | 19 | 121 | 3.2 | 16.1 | 0.00 | 0.00 | 0.00 | 74 | 1008.2 |
| 20260901221603 | 18 | 127 | 9.7 | 20.9 | 0.00 | 0.00 | 0.00 | 75 | 1008.2 |
| 20260901220039 | 18 | 155 | 4.8 | 14.5 | 0.00 | 0.00 | 0.00 | 74 | 1008.4 |
| 20260901214538 | 18 | 177 | 4.8 | 14.5 | 0.00 | 0.00 | 0.00 | 77 | 1008.6 |
| 20260901213058 | 18 | 200 | 4.8 | 25.7 | 0.00 | 0.00 | 0.00 | 78 | 1008.7 |
| 20260901211544 | 17 | 168 | 4.8 | 12.9 | 0.00 | 0.00 | 0.00 | 79 | 1008.7 |
| 20260901210039 | 17 | 192 | 6.4 | 17.7 | 0.00 | 0.00 | 0.00 | 78 | 1008.9 |
| 20260901204536 | 18 | 177 | 3.2 | 14.5 | 0.00 | 0.00 | 0.00 | 78 | 1008.9 |
| 20260901203042 | 17 | 229 | 4.8 | 12.9 | 0.00 | 0.00 | 0.00 | 79 | 1008.9 |
| 20260901201533 | 17 | 190 | 6.4 | 16.1 | 0.00 | 0.00 | 0.00 | 78 | 1008.9 |
| 20260901200041 | 18 | 128 | 4.8 | 12.9 | 0.00 | 0.00 | 0.00 | 76 | 1008.7 |
| 20260901194532 | 18 | 156 | 3.2 | 16.1 | 0.00 | 0.00 | 0.00 | 73 | 1008.7 |
| 20260901193035 | 18 | 186 | 8.0 | 22.5 | 0.00 | 0.00 | 0.00 | 77 | 1008.8 |
| 20260901191530 | 19 | 192 | 3.2 | 22.5 | 0.00 | 0.00 | 0.00 | 75 | 1008.7 |
| 20260901190029 | 18 | 206 | 3.2 | 12.9 | 0.00 | 0.00 | 0.00 | 75 | 1008.7 |
| 20260901184533 | 18 | 164 | 1.6 | 12.9 | 0.00 | 0.00 | 0.00 | 75 | 1008.9 |
| 20260901183025 | 17 | 234 | 1.6 | 14.5 | 0.00 | 0.00 | 0.00 | 79 | 1009.0 |
| 20260901181524 | 17 | 188 | 3.2 | 16.1 | 0.00 | 0.00 | 0.00 | 76 | 1009.0 |
| 20260901180023 | 17 | 153 | 4.8 | 17.7 | 0.00 | 0.00 | 0.00 | 79 | 1009.0 |
| 20260901174520 | 17 | 198 | 4.8 | 14.5 | 0.00 | 0.00 | 0.00 | 77 | 1009.0 |
| 20260901173017 | 16 | 289 | 1.6 | 11.3 | 0.00 | 0.00 | 0.00 | 81 | 1008.9 |
| 20260901171518 | 16 | 167 | 1.6 | 12.9 | 0.00 | 0.00 | 0.00 | 83 | 1009.0 |
| 20260901170010 | 16 | 194 | 3.2 | 11.3 | 0.00 | 0.00 | 0.00 | 83 | 1009.0 |
| 20260901164510 | 15 | 155 | 3.2 | 8.0 | 0.00 | 0.00 | 0.00 | 84 | 1008.9 |
| 20260901163003 | 15 | 192 | 4.8 | 19.3 | 0.00 | 0.00 | 0.00 | 85 | 1008.9 |